Calgary Springbank, Alberta

7:48 AM MDT on August 29, 2016 (GMT -0600)
Springbank

Weather History for CYBW - December, 2012

Change the Weather History Date:

Wednesday, December 12, 2012

  Actual Average Record
Temperature  
Mean Temperature 11 °F -  
Max Temperature 22 °F 26 °F 50 °F (1997)
Min Temperature -2 °F 7 °F -5 °F (2000)
Degree Days  
Heating Degree Days 54    
Moisture  
Dew Point 8 °F    
Average Humidity 85    
Maximum Humidity 93    
Minimum Humidity 75    
Precipitation  
Precipitation 0.08 in - - ()
Sea Level Pressure  
Sea Level Pressure 29.84 in    
Wind  
Wind Speed 5 mph ()    
Max Wind Speed 12 mph    
Max Gust Speed -    
Visibility 7.3 miles    
Events Snow    
Averages and records for this station are not official NWS values.
T = Trace of Precipitation, MM = Missing Value Source: Averaged Metar Reports

Daily Weather History Graph

Daily Weather History Graph

Search for Another Location

Airport or City:

Trip Planner

Search our weather history database for the weather conditions in past years. The results will help you decide how hot, cold, wet, or windy it might be!

Date:

Astronomy

Dec. 12, 2012 Rise Set
Actual Time 8:32 AM MST 4:30 PM MST
Civil Twilight 7:53 AM MST 5:09 PM MST
Nautical Twilight 7:10 AM MST 5:52 PM MST
Astronomical Twilight 6:30 AM MST 6:32 PM MST
Moon 7:39 AM MST (12/12) 4:13 PM MST (12/12)
Length of Visible Light 9h 16m
Length of Day
7h 57m
Waning Crescent, 0% of the Moon is Illuminated
Dec 12
Waning Crescent
Dec 13
New
Dec 19
First Quarter
Dec 28
Full
Jan 4
Last Quarter

Hourly Weather History & Observations

Time (MST) Temp. Windchill Dew Point Humidity Pressure Visibility Wind Dir Wind Speed Gust Speed Precip Events Conditions
5:00 AM 21 °F - 18 °F 82% 29.72 in 5 mi NE 2.3 mph - - Snow Light Snow
5:00 AM 21.2 °F - 17.6 °F 86% 29.71 in 5.0 mi Calm Calm - N/A Snow Light Snow
6:00 AM 23.0 °F 13.9 °F 21.2 °F 93% 29.73 in 14.0 mi East 8.1 mph - N/A Snow Light Snow
7:00 AM 21.2 °F 10.1 °F 17.6 °F 86% 29.76 in 3.0 mi East 10.4 mph - N/A Snow Light Snow
8:00 AM 17.6 °F 8.2 °F 15.8 °F 93% 29.78 in 2.5 mi East 6.9 mph - N/A Snow Snow
8:15 AM 15.8 °F 4.2 °F 14.0 °F 93% 29.80 in 1.5 mi East 9.2 mph - N/A Snow Light Snow
9:00 AM 14.0 °F 3.9 °F 12.2 °F 93% 29.82 in 2.5 mi ENE 6.9 mph - N/A Snow Light Snow
10:00 AM 14.0 °F 3.9 °F 10.4 °F 86% 29.86 in 3.0 mi East 6.9 mph - N/A Snow Light Snow
11:00 AM 14 °F - 10 °F 76% 29.88 in 2 mi ESE 6.9 mph - - Snow Light Snow
11:00 AM 14.0 °F 3.9 °F 10.4 °F 86% 29.88 in 2.5 mi SE 6.9 mph - N/A Snow Light Snow
12:00 PM 14.0 °F 3.9 °F 10.4 °F 86% 29.87 in 3.0 mi SSE 6.9 mph - N/A Snow Light Snow
1:00 PM 14.0 °F 5.1 °F 8.6 °F 79% 29.88 in 4.0 mi SE 5.8 mph - N/A Snow Light Snow
2:00 PM 14.0 °F 0.5 °F 8.6 °F 79% 29.86 in 8.0 mi SE 11.5 mph - N/A   Mostly Cloudy
3:00 PM 12.2 °F -1.0 °F 6.8 °F 79% 29.88 in 8.0 mi SE 10.4 mph - N/A   Scattered Clouds
5:00 PM 7 °F - 3 °F 75% 29.91 in 7 mi SE 5.8 mph - -   Partly Cloudy
5:00 PM 6.8 °F -0.1 °F 3.2 °F 85% 29.91 in 7.0 mi SE 3.5 mph - N/A   Mostly Cloudy
6:00 PM 3.2 °F - -0.4 °F 85% 29.91 in 15.0 mi Calm Calm - N/A   Scattered Clouds
7:00 PM -0.4 °F - -4.0 °F 85% 29.94 in 15.0 mi Calm Calm - N/A   Partly Cloudy
8:00 PM 1.4 °F - -2.2 °F 85% 29.94 in 15.0 mi Calm Calm - N/A   Partly Cloudy
9:00 PM -0.4 °F - -4.0 °F 85% 29.94 in 15.0 mi Calm Calm - N/A   Partly Cloudy
10:00 PM -2.2 °F - -5.8 °F 85% 29.68 in 15.0 mi Variable 2.3 mph - N/A   Clear